EW9766 Weather Reports


time (UTC)temp
F
wind
direction
speed
knots
gust
knots
rain 1hr
in
rain 24hr
in
rain mn
in
humidity
%
barometer
mb
20260901040031 60 137 5.2 9.6 0.00 0.00 0.00 61 1011.5
20260901034607 59 144 6.1 8.7 0.00 0.00 0.00 65 1011.4
20260901033035 58 163 5.2 7.8 0.00 0.00 0.00 68 1011.2
20260901031532 58 176 5.2 7.0 0.00 0.00 0.00 70 1011.2
20260901030034 59 171 4.3 7.0 0.00 0.00 0.00 70 1011.3
20260901024534 59 168 4.3 6.1 0.00 0.00 0.00 71 1011.1
20260901023106 59 166 4.3 6.1 0.00 0.00 0.00 72 1011.0
20260901020036 60 138 3.5 4.3 0.00 0.00 0.00 72 1011.0
20260901014535 62 162 2.6 3.5 0.00 0.00 0.00 66 1011.0
20260901013031 66 188 1.7 2.6 0.00 0.00 0.00 59 1010.9
20260901011530 68 254 1.7 3.5 0.00 0.00 0.00 57 1011.0
20260901004534 72 250 1.7 5.2 0.00 0.00 0.00 50 1011.1
20260901003037 73 243 1.7 5.2 0.00 0.00 0.00 48 1011.0
20260901001529 74 239 1.7 6.1 0.00 0.00 0.00 46 1011.1
20260901000107 75 245 2.6 7.8 0.00 0.00 0.00 44 1011.3
20260831234605 75 243 1.7 7.0 0.00 0.00 0.00 43 1011.3
20260831233031 76 255 2.6 6.1 0.00 0.00 0.00 44 1011.4
20260831231536 76 254 2.6 6.1 0.00 0.00 0.00 44 1011.6
20260831230037 76 247 2.6 6.1 0.00 0.00 0.00 43 1011.7
20260831224532 76 259 2.6 7.0 0.00 0.00 0.00 42 1011.9
20260831223105 76 268 3.5 10.4 0.00 0.00 0.00 42 1012.0
20260831220032 77 267 3.5 8.7 0.00 0.00 0.00 43 1012.3
20260831214535 77 260 3.5 8.7 0.00 0.00 0.00 43 1012.6
20260831213033 77 256 3.5 7.8 0.00 0.00 0.00 43 1012.7
20260831211532 77 269 3.5 7.8 0.00 0.00 0.00 43 1012.8
20260831210034 77 251 3.5 9.6 0.00 0.00 0.00 44 1012.9
20260831204648 76 254 3.5 8.7 0.00 0.00 0.00 45 1013.0
20260831201537 76 245 3.5 8.7 0.00 0.00 0.00 46 1013.5
20260831200044 76 268 3.5 10.4 0.00 0.00 0.00 47 1013.8
20260831194532 75 256 2.6 7.8 0.00 0.00 0.00 49 1013.9
20260831193104 73 265 2.6 7.8 0.00 0.00 0.00 50 1014.1
20260831191536 73 257 3.5 7.8 0.00 0.00 0.00 52 1014.4
20260831190032 72 249 3.5 7.0 0.00 0.00 0.00 54 1014.6
20260831184530 70 267 2.6 7.0 0.00 0.00 0.00 56 1014.8
20260831181531 68 310 2.6 7.0 0.00 0.00 0.00 58 1015.2
20260831180105 68 311 2.6 7.0 0.00 0.00 0.00 59 1015.4
20260831164536 65 287 1.7 5.2 0.00 0.00 0.00 64 1016.0
20260831161532 64 319 1.7 3.5 0.00 0.00 0.00 66 1016.1
20260831160034 64 286 0.9 3.5 0.00 0.00 0.00 68 1016.2
20260831154532 64 273 0.0 2.6 0.00 0.00 0.00 72 1016.2
20260831153035 63 181 0.0 1.7 0.00 0.00 0.00 78 1016.2
20260831151530 60 157 0.0 0.9 0.00 0.00 0.00 86 1016.2
20260831150038 54 157 0.9 2.6 0.00 0.00 0.00 89 1016.2
20260831144534 49 157 1.7 2.6 0.00 0.00 0.00 90 1016.1
20260831141532 43 180 2.6 4.3 0.00 0.00 0.00 90 1016.0
20260831140032 43 180 3.5 4.3 0.00 0.00 0.00 89 1015.8
20260831134607 43 180 3.5 4.3 0.00 0.00 0.00 89 1015.8
20260831133038 43 180 3.5 4.3 0.00 0.00 0.00 88 1015.8
20260831131532 43 180 3.5 3.5 0.00 0.00 0.00 88 1015.9
20260831130149 43 174 2.6 4.3 0.00 0.00 0.00 87 1015.9
20260831124536 43 180 2.6 4.3 0.00 0.00 0.00 87 1015.8
20260831123033 43 180 2.6 4.3 0.00 0.00 0.00 87 1015.8
20260831121606 43 180 2.6 3.5 0.00 0.00 0.00 86 1015.8
20260831114536 44 168 3.5 5.2 0.00 0.00 0.00 86 1015.9
20260831113034 45 163 3.5 5.2 0.00 0.00 0.00 85 1016.0
20260831111530 45 161 3.5 4.3 0.00 0.00 0.00 85 1016.0
20260831110035 45 158 3.5 4.3 0.00 0.00 0.00 85 1016.1
20260831104535 46 150 3.5 5.2 0.00 0.00 0.00 84 1016.0
20260831103034 45 146 3.5 7.0 0.00 0.00 0.00 84 1016.1
20260831101605 46 148 3.5 6.1 0.00 0.00 0.00 83 1016.2
20260831100034 46 172 3.5 4.3 0.00 0.00 0.00 83 1016.3
20260831094537 46 163 3.5 4.3 0.00 0.00 0.00 82 1016.5
20260831093029 47 165 2.6 4.3 0.00 0.00 0.00 81 1016.6
20260831091532 48 148 2.6 4.3 0.00 0.00 0.00 81 1016.6
20260831090034 48 156 3.5 7.8 0.00 0.00 0.00 80 1016.8
20260831084538 48 153 4.3 6.1 0.00 0.00 0.00 80 1016.8
20260831083036 49 154 3.5 7.0 0.00 0.00 0.00 79 1017.0
20260831080106 49 148 3.5 6.1 0.00 0.00 0.00 79 1017.2
20260831073035 50 140 3.5 5.2 0.00 0.00 0.00 77 1017.2
20260831071531 50 158 3.5 7.0 0.00 0.00 0.00 77 1017.3
20260831070032 51 161 4.3 7.0 0.00 0.00 0.00 77 1017.3
20260831063030 50 138 4.3 8.7 0.00 0.00 0.00 78 1017.5
20260831060151 50 170 4.3 7.0 0.00 0.00 0.00 77 1017.6
20260831054531 51 160 4.3 7.0 0.00 0.00 0.00 76 1017.8
20260831053035 51 155 4.3 7.0 0.00 0.00 0.00 76 1017.9
20260831051607 52 162 3.5 6.1 0.00 0.00 0.00 75 1018.0
20260831050030 52 164 4.3 7.0 0.00 0.00 0.00 75 1018.1
20260831044534 52 151 4.3 6.1 0.00 0.00 0.00 76 1018.2
20260831043030 52 147 3.5 7.0 0.00 0.00 0.00 76 1018.2
20260831041533 51 157 4.3 6.1 0.00 0.00 0.00 77 1018.3